Location: Proctor
(47.8934°N, 114.3048°W)
Time: 05:35:27
(UTC+00:00)

Envisat - Pass Details

Date: 30 May 2024
Orbit: 762 x 764 km, 98.3° (Epoch: 13 June)

Event Time Altitude Azimuth Distance (km) Brightness Sun altitude
Rises 10:27:55 0° 19° (NNE) 3,238 7.7 -10.2°
Reaches altitude 10° 10:30:21 10° 26° (NNE) 2,307 6.9 -9.9°
Maximum altitude 10:35:11 43° 98° (E) 1,066 4.1 -9.4°
Drops below altitude 10° 10:39:59 10° 170° (S) 2,291 5.1 -8.8°
Sets 10:42:23 0° 177° (S) 3,212 5.8 -8.6°
